Miscellaneous Local Product
Issued by NWS Hastings, NE

Home | Current Version | Previous Version | Graphics & Text | Print | Product List | Glossary On
Versions: 1 2 3 4 5 6 7 8 9 10 11 12 13 14 15 16 17 18 19 20 21 22 23 24 25 26 27 28 29 30 31 32 33 34 35 36 37 38 39 40 41 42 43 44 45 46 47 48 49 50
000
AXUS43 KGID 270002
MISGRI

GID CWA HOURLY WEATHER ROUNDUP
NATIONAL WEATHER SERVICE HASTINGS NE
600 PM CST WED NOV 26 2014

NOTE: "FAIR" INDICATES FEW OR NO CLOUDS BELOW 12,000 FEET WITH NO
SIGNIFICANT WEATHER AND/OR OBSTRUCTIONS TO VISIBILITY.

...SOUTH CENTRAL NEBRASKA...

CITY           SKY/WX    TMP DP  RH WIND       PRES   REMARKS
GRAND ISLAND   CLOUDY    26  17  68 N15       30.35R WCI  14
HASTINGS       CLOUDY    28  18  66 N9        30.34R WCI  19
KEARNEY        CLOUDY    28  16  59 NW8       30.35R WCI  20
ORD            CLOUDY    25  16  68 N12       30.34R WCI  14
YORK           CLOUDY    27  18  69 N14G20    30.34R WCI  15
AURORA         CLOUDY    26  17  67 N13       30.34S WCI  15
LEXINGTON      CLOUDY    31  20  63 N3        30.34R
HOLDREGE       CLOUDY    32  18  56 NW7       30.32R WCI  25
HEBRON         CLOUDY    31  19  62 N13       30.34R WCI  21

...NEBRASKA PANHANDLE...

CITY           SKY/WX    TMP DP  RH WIND       PRES   REMARKS
CHADRON        CLOUDY   N/A N/A N/A SW5       30.27R
ALLIANCE       CLOUDY    29  26  89 SW6       30.25S WCI  23
SCOTTSBLUFF    LGT SNOW  29  28  96 E3        30.27R FOG
SIDNEY         CLOUDY    27  24  89 SE5       30.26F WCI  22

...WESTERN AND NORTH CENTRAL NEBRASKA...

CITY           SKY/WX    TMP DP  RH WIND       PRES   REMARKS
VALENTINE      CLOUDY    26  18  71 NE3       30.31R
AINSWORTH      CLOUDY    24  18  79 N3        30.32R
ONEILL         CLOUDY    23  15  72 N9        30.35S WCI  13
BROKEN BOW     CLOUDY    27  18  69 N6        30.32R WCI  20
IMPERIAL       CLOUDY    31  27  85 CALM      30.32R
NORTH PLATTE   CLOUDY    30  18  60 CALM      30.31R
MCCOOK         CLOUDY    35  20  54 NW6       30.33R WCI  30

...EASTERN NEBRASKA...

CITY           SKY/WX    TMP DP  RH WIND       PRES   REMARKS
NORFOLK        CLOUDY    21  15  78 NW15      30.35R WCI   8
SO SIOUX CITY  CLOUDY    21  15  78 N17       30.36R WCI   7
TEKAMAH        CLOUDY    24  17  74 NW21      30.35R WCI   9
COLUMBUS       MOCLDY    23  14  68 NW14      30.36R WCI  11
ALBION         CLOUDY    24  13  62 NW10      30.35R WCI  13
OMAHA EPPLEY   CLOUDY    26  20  77 N23G32    30.33R WCI  11
OFFUTT AFB     CLOUDY    27  20  75 N21       30.31R WCI  13
MILLARD        CLOUDY    27  20  75 NW13      30.32R WCI  16
LINCOLN        CLOUDY    27  18  69 N23G29    30.35R WCI  12
NEBRASKA CITY  CLOUDY    28  20  72 N23G30    30.26R WCI  13
BEATRICE       CLOUDY    28  20  74 N18G24    30.32R WCI  15
FALLS CITY     CLOUDY    29  21  72 NW22G29   30.27R WCI  15

...NORTHERN KANSAS...

CITY           SKY/WX    TMP DP  RH WIND       PRES   REMARKS
GOODLAND       MOCLDY    29  23  78 NE7       30.31S WCI  22
HILL CITY      CLOUDY    37  18  46 NW5       30.35R WCI  33
NORTON         CLOUDY    34  16  47 CALM      30.34R
PHILLIPSBURG   MOCLDY    37  19  48 N8        30.37R WCI  31
SMITH CENTER   CLEAR     30  18  59 NW9       30.37R WCI  22
BELOIT         CLEAR     32  21  64 NW10G18   30.36R WCI  24
HAYS           CLOUDY    37  16  41 N12       30.35R WCI  30
RUSSELL        CLOUDY    36  20  52 N13       30.33R WCI  27
CONCORDIA      PTCLDY    31  21  66 N14       30.35R WCI  21
SALINA         CLEAR     35  21  56 N14       30.35R WCI  26
TOPEKA         CLOUDY    34  23  64 NW16G24   30.28R WCI  24



USA.gov is the U.S. government's official web portal to all federal, state and local government web resources and services.